KC8YYF Weather Reports


time (UTC)temp
F
wind
direction
speed
knots
gust
knots
rain 1hr
in
rain 24hr
in
rain mn
in
humidity
%
barometer
mb
20260504030503 50 8 0.0 0.0 0.00 0.00 0.00 70 1014.4
20260504025958 50 8 0.0 0.0 0.00 0.00 0.00 70 1014.5
20260504025456 51 8 0.0 0.0 0.00 0.00 0.00 72 1014.6
20260504024952 51 8 0.0 0.0 0.00 0.00 0.00 71 1014.5
20260504024449 51 8 0.0 0.0 0.00 0.00 0.00 68 1014.7
20260504023946 51 99 0.0 0.0 0.00 0.00 0.00 71 1014.6
20260504023443 51 99 0.0 0.0 0.00 0.00 0.00 67 1014.7
20260504022938 51 99 0.0 0.0 0.00 0.00 0.00 68 1014.4
20260504022435 51 95 1.7 1.7 0.00 0.00 0.00 65 1014.7
20260504021932 52 71 0.9 1.7 0.00 0.00 0.00 65 1014.7
20260504021429 52 54 0.0 2.6 0.00 0.00 0.00 60 1014.7
20260504020926 52 23 0.0 1.7 0.00 0.00 0.00 65 1014.8
20260504020423 52 66 0.0 1.7 0.00 0.00 0.00 61 1014.7
20260504015920 52 90 1.7 2.6 0.00 0.00 0.00 59 1014.9
20260504015415 52 66 0.9 1.7 0.00 0.00 0.00 60 1014.8
20260504014912 52 59 1.7 2.6 0.00 0.00 0.00 59 1014.9
20260504014408 52 73 1.7 3.5 0.00 0.00 0.00 58 1014.7
20260504013905 53 75 0.9 1.7 0.00 0.00 0.00 57 1014.6
20260504013403 53 45 1.7 2.6 0.00 0.00 0.00 57 1014.6
20260504012859 52 52 0.0 2.6 0.00 0.00 0.00 56 1014.6
20260504012357 53 39 1.7 6.1 0.00 0.00 0.00 56 1014.5
20260504011854 53 31 2.6 5.2 0.00 0.00 0.00 54 1014.5
20260504011351 53 114 0.0 3.5 0.00 0.00 0.00 56 1014.5
20260504010847 53 47 2.6 4.3 0.00 0.00 0.00 53 1014.3
20260504010343 51 90 0.9 1.7 0.00 0.00 0.00 60 1014.2
20260504005839 51 90 0.9 0.9 0.00 0.00 0.00 66 1014.4
20260504005336 51 8 0.0 0.0 0.00 0.00 0.00 65 1014.3
20260504004834 52 8 0.0 0.0 0.00 0.00 0.00 63 1014.1
20260504004331 52 8 0.0 0.0 0.00 0.00 0.00 66 1014.1
20260504003827 52 8 0.0 0.0 0.00 0.00 0.00 67 1014.2
20260504003325 53 8 0.0 0.0 0.00 0.00 0.00 62 1014.1
20260504002821 53 8 0.0 0.0 0.00 0.00 0.00 63 1014.1
20260504002318 53 8 0.0 0.0 0.00 0.00 0.00 61 1013.9
20260504001816 53 90 0.0 0.0 0.00 0.00 0.00 62 1014.2
20260504001313 53 90 0.0 0.0 0.00 0.00 0.00 59 1014.1
20260504000810 54 90 0.0 0.0 0.00 0.00 0.00 61 1013.9
20260504000307 53 90 0.0 0.9 0.00 0.00 0.00 56 1014.1
20260503235804 53 54 0.0 0.0 0.00 0.00 0.00 62 1014.1
20260503235301 54 54 0.0 0.0 0.00 0.00 0.00 64 1014.2
20260503234759 54 237 0.0 0.0 0.00 0.00 0.00 58 1014.3
20260503234257 55 90 0.0 0.0 0.00 0.00 0.00 59 1014.4
20260503233754 55 90 0.0 0.0 0.00 0.00 0.00 60 1014.4
20260503233249 55 90 0.0 0.0 0.00 0.00 0.00 59 1014.6
20260503232747 55 270 0.0 0.0 0.00 0.00 0.00 55 1014.4
20260503232244 56 99 0.0 0.0 0.00 0.00 0.00 52 1014.6
20260503231742 56 57 0.0 1.7 0.00 0.00 0.00 47 1014.4
20260503231239 57 81 1.7 1.7 0.00 0.00 0.00 46 1014.6
20260503230734 57 82 0.0 2.6 0.00 0.00 0.00 43 1014.7
20260503230232 57 78 1.7 2.6 0.00 0.00 0.00 46 1014.6
20260503225730 57 107 2.6 2.6 0.00 0.00 0.00 49 1014.7
20260503225229 57 63 0.0 1.7 0.00 0.00 0.00 47 1014.9
20260503224727 57 14 0.9 1.7 0.00 0.00 0.00 48 1014.6
20260503224225 57 36 1.7 1.7 0.00 0.00 0.00 49 1014.9
20260503223722 58 78 1.7 2.6 0.00 0.00 0.00 45 1014.8
20260503223219 58 117 0.0 4.3 0.00 0.00 0.00 44 1014.8
20260503222716 58 140 1.7 4.3 0.00 0.00 0.00 48 1015.1
20260503222213 58 49 2.6 4.3 0.00 0.00 0.00 46 1014.9
20260503221712 58 45 2.6 2.6 0.00 0.00 0.00 42 1014.9
20260503221209 58 111 0.9 3.5 0.00 0.00 0.00 40 1014.8
20260503220705 58 84 0.9 4.3 0.00 0.00 0.00 45 1014.8
20260503220202 58 106 0.9 2.6 0.00 0.00 0.00 48 1014.9
20260503215659 58 270 1.7 1.7 0.00 0.00 0.00 45 1014.8
20260503215156 58 23 0.9 2.6 0.00 0.00 0.00 42 1014.8
20260503214654 59 114 0.0 1.7 0.00 0.00 0.00 42 1015.1
20260503214149 58 84 2.6 3.5 0.00 0.00 0.00 44 1014.9
20260503213644 59 15 1.7 3.5 0.00 0.00 0.00 41 1014.8
20260503213140 59 62 2.6 3.5 0.00 0.00 0.00 44 1015.3
20260503212637 60 129 1.7 2.6 0.00 0.00 0.00 45 1015.0
20260503212135 61 80 2.6 2.6 0.00 0.00 0.00 43 1014.9
20260503211632 60 21 0.0 3.5 0.00 0.00 0.00 42 1015.0
20260503211127 60 84 0.9 2.6 0.00 0.00 0.00 43 1014.8
20260503210624 59 66 2.6 2.6 0.00 0.00 0.00 45 1015.1
20260503210121 60 49 1.7 4.3 0.00 0.00 0.00 42 1015.1
20260503205617 60 56 1.7 2.6 0.00 0.00 0.00 42 1014.8
20260503205113 62 49 0.0 2.6 0.00 0.00 0.00 41 1014.9
20260503204610 61 90 0.9 6.1 0.00 0.00 0.00 39 1015.1
20260503204108 61 63 0.9 4.3 0.00 0.00 0.00 39 1015.1
20260503203604 61 254 0.9 2.6 0.00 0.00 0.00 42 1015.3
20260503203101 60 79 4.3 6.1 0.00 0.00 0.00 42 1015.2
20260503202559 61 116 2.6 3.5 0.00 0.00 0.00 41 1015.0
20260503202057 60 82 1.7 4.3 0.00 0.00 0.00 45 1015.2
20260503201555 60 281 0.0 3.5 0.00 0.00 0.00 43 1015.3
20260503201052 60 56 1.7 3.5 0.00 0.00 0.00 40 1015.3
20260503200548 60 120 1.7 5.2 0.00 0.00 0.00 47 1015.3
20260503200044 60 41 0.0 4.3 0.00 0.00 0.00 40 1015.3
20260503195542 60 34 1.7 2.6 0.00 0.00 0.00 43 1015.6
20260503195038 59 90 0.9 3.5 0.00 0.00 0.00 44 1015.8
20260503194536 59 73 2.6 4.3 0.00 0.00 0.00 45 1015.9
20260503194035 59 57 2.6 4.3 0.00 0.00 0.00 42 1015.9
20260503193532 60 355 2.6 2.6 0.00 0.00 0.00 44 1016.1
20260503193028 59 30 1.7 6.1 0.00 0.00 0.00 41 1016.2
20260503192524 60 49 2.6 5.2 0.00 0.00 0.00 41 1016.1
20260503192020 59 82 4.3 5.2 0.00 0.00 0.00 43 1016.3
20260503191517 58 127 1.7 3.5 0.00 0.00 0.00 47 1016.5
20260503191014 58 81 0.0 5.2 0.00 0.00 0.00 45 1016.3
20260503190511 59 90 1.7 3.5 0.00 0.00 0.00 42 1016.5
20260503190008 58 32 0.0 3.5 0.00 0.00 0.00 44 1016.8
20260503185504 58 81 1.7 1.7 0.00 0.00 0.00 45 1016.7
20260503184958 58 117 2.6 4.3 0.00 0.00 0.00 46 1016.8
20260503184455 58 63 3.5 3.5 0.00 0.00 0.00 42 1016.7
20260503183951 60 90 0.0 6.1 0.00 0.00 0.00 46 1016.8
20260503183448 60 29 0.9 3.5 0.00 0.00 0.00 41 1016.7
20260503182944 59 15 0.9 4.3 0.00 0.00 0.00 42 1017.0
20260503182443 60 75 0.0 4.3 0.00 0.00 0.00 45 1016.9
20260503181941 59 144 1.7 4.3 0.00 0.00 0.00 44 1017.1
20260503181438 60 90 1.7 2.6 0.00 0.00 0.00 45 1017.0
20260503180933 58 117 0.9 5.2 0.00 0.00 0.00 44 1017.1
20260503180432 58 127 1.7 5.2 0.00 0.00 0.00 44 1017.2
20260503175928 57 109 0.9 4.3 0.00 0.00 0.00 43 1017.1
20260503175427 58 113 4.3 5.2 0.00 0.00 0.00 43 1017.1
20260503174922 57 90 0.0 3.5 0.00 0.00 0.00 43 1017.3
20260503174421 58 73 3.5 7.0 0.00 0.00 0.00 43 1017.4
20260503173920 58 98 3.5 5.2 0.00 0.00 0.00 41 1017.4
20260503173417 60 0 0.0 3.5 0.00 0.00 0.00 40 1017.2
20260503172914 59 86 2.6 4.3 0.00 0.00 0.00 43 1017.3
20260503172411 58 99 1.7 4.3 0.00 0.00 0.00 42 1017.5
20260503171907 60 83 5.2 7.0 0.00 0.00 0.00 39 1017.5
20260503171404 58 36 1.7 7.0 0.00 0.00 0.00 42 1017.6
20260503170902 59 138 5.2 5.2 0.00 0.00 0.00 45 1017.7
20260503170358 59 110 5.2 6.1 0.00 0.00 0.00 43 1017.7
20260503150750 55 349 0.9 3.5 0.00 0.00 0.00 51 1018.7
20260503150246 53 87 2.6 4.3 0.00 0.00 0.00 49 1018.8
20260503140211 48 114 0.9 3.5 0.00 0.00 0.00 59 1019.2
20260503131140 43 48 1.7 2.6 0.00 0.00 0.00 77 1019.2
20260503130638 42 114 2.6 2.6 0.00 0.00 0.00 78 1019.2
20260503130135 41 24 1.7 2.6 0.00 0.00 0.00 81 1019.4
20260503110528 32 75 0.0 0.0 0.00 0.00 0.00 98 1018.7
20260503090415 33 82 0.0 0.0 0.00 0.00 0.00 97 1017.9
20260503081341 34 74 0.0 0.0 0.00 0.00 0.00 97 1018.0
20260503080838 34 74 0.0 0.0 0.00 0.00 0.00 97 1017.7
20260503080335 34 74 0.0 0.0 0.00 0.00 0.00 96 1017.7
20260503072811 34 90 0.0 0.9 0.00 0.00 0.00 96 1017.7
20260503072308 35 15 0.0 0.0 0.00 0.00 0.00 96 1017.8
20260503071804 35 15 0.0 0.0 0.00 0.00 0.00 96 1017.6
20260503071302 35 15 0.0 0.0 0.00 0.00 0.00 96 1017.5
20260503070758 35 15 0.0 0.0 0.00 0.00 0.00 95 1017.8
20260503070256 35 15 0.0 0.0 0.00 0.00 0.00 95 1017.9
20260503060215 37 77 0.0 1.7 0.00 0.00 0.00 93 1017.9
20260503054702 37 74 0.0 0.0 0.00 0.00 0.00 93 1017.8
20260503054159 37 90 0.0 0.0 0.00 0.00 0.00 92 1017.9
20260503053657 37 90 0.9 1.7 0.00 0.00 0.00 92 1017.9
20260503053155 37 82 0.0 1.7 0.00 0.00 0.00 92 1017.6
20260503052651 37 68 0.0 1.7 0.00 0.00 0.00 92 1017.9
20260503052148 37 114 0.0 0.9 0.00 0.00 0.00 92 1018.2
20260503051643 37 112 0.0 0.0 0.00 0.00 0.00 92 1017.9
20260503051141 37 112 0.0 0.0 0.00 0.00 0.00 92 1018.2
20260503050638 37 98 0.0 0.0 0.00 0.00 0.00 92 1018.1
20260503050134 37 74 0.0 0.0 0.00 0.00 0.00 92 1018.0
20260503045632 37 105 0.0 0.0 0.00 0.00 0.00 93 1018.1
20260503045129 37 97 0.0 0.0 0.00 0.00 0.00 93 1018.1
20260503044625 37 83 0.0 0.9 0.00 0.00 0.00 93 1018.1
20260503044123 37 77 0.9 0.9 0.00 0.00 0.00 93 1018.2
20260503043620 37 106 1.7 1.7 0.00 0.00 0.00 93 1018.0
20260503043116 37 90 0.0 1.7 0.00 0.00 0.00 92 1017.8
20260503042613 37 106 0.0 1.7 0.00 0.00 0.00 92 1018.0
20260503042109 37 18 0.0 0.9 0.00 0.00 0.00 92 1018.1
20260503041606 37 97 0.0 0.9 0.00 0.00 0.00 91 1018.1
20260503041104 37 82 0.0 0.0 0.00 0.00 0.00 91 1018.0
20260503040601 37 82 0.0 0.0 0.00 0.00 0.00 91 1018.1
20260503040058 37 82 0.0 0.0 0.00 0.00 0.00 91 1018.0
20260503035554 37 82 0.0 0.0 0.00 0.00 0.00 91 1018.2
20260503035052 37 82 0.0 0.0 0.00 0.00 0.00 91 1018.1
20260503034549 37 98 0.0 0.9 0.00 0.00 0.00 90 1018.3
20260503034046 37 106 0.0 0.0 0.00 0.00 0.00 90 1018.1
20260503033543 37 106 0.0 0.0 0.00 0.00 0.00 90 1018.1
20260503033041 37 106 0.0 0.0 0.00 0.00 0.00 90 1018.2
20260503032539 37 106 0.0 0.0 0.00 0.00 0.00 91 1018.2
20260503032037 37 90 0.0 0.0 0.00 0.00 0.00 90 1018.1
20260503031535 37 90 0.0 0.0 0.00 0.00 0.00 91 1018.5
20260503031032 37 90 0.0 0.0 0.00 0.00 0.00 90 1018.3